Location: Elko Observing site
(32.3606°N, 83.7235°W)
Time: 02:11:25
(UTC-04:00)

N. Korean satellite - Pass Details

Date: 22 March 2019
Orbit: 457 x 508 km, 97.2° (Epoch: 23 April)

Event Time Altitude Azimuth Distance (km) Brightness Sun altitude
Rises 06:59:39 0° 27° (NNE) 2,528 10.7 -8.6°
Reaches altitude 10° 07:02:01 10° 43° (NE) 1,655 10.0 -8.1°
Maximum altitude 07:04:53 23° 97° (E) 1,078 9.5 -7.5°
Drops below altitude 10° 07:07:46 10° 150° (SSE) 1,669 9.6 -6.9°
Sets 07:10:09 0° 166° (SSE) 2,555 10.4 -6.4°
